{"data":{"norad_id":48398,"epoch":"2026-09-20T01:18:59.035680Z","epoch_age_seconds":72115,"freshness":"FRESH","line1":"1 48398U 21038AX  26263.05484995  .00026648  00000+0  10436-2 0  9990","line2":"2 48398  53.0462 167.5000 0004741  36.2283 323.9034 15.25628962298136","mean_motion":15.25628962,"eccentricity":0.0004741,"inclination_deg":53.0462,"raan_deg":167.5,"arg_perigee_deg":36.2283,"mean_anomaly_deg":323.9034,"bstar":0.0010436,"rev_number":29813,"period_min":94.387300966826,"perigee_km":485.64176973073,"apogee_km":492.15309177797,"semimajor_km":6867.0344307543,"source":"CELESTRAK","updated_at":"2026-09-20T09:00:38.946744Z"}}